Terminal Aerodrome Forecast
Issued by NWS

Home | Current Version | Previous Version | Graphics & Text | Print | Product List | Glossary On
Versions: 1 2 3 4 5 6 7 8 9 10 11 12 13 14 15 16 17 18 19 20 21 22 23 24 25 26 27 28 29 30 31
959
FTUS45 KGGW 221131
TAFOLF
TAF
KOLF 221131Z 2212/2312 24005KT 1SM BR SCT002
     FM221600 24006KT P6SM BKN100
     FM230600 26008KT 6SM BR SCT040=

USA.gov is the U.S. government's official web portal to all federal, state and local government web resources and services.